Back to catalog

STARLINK-38238

AliveCommunicationsSSO
NORAD 100223·PAYLOAD·🇺🇸 United States

Launched Aug 4, 2026 from Vandenberg Space Force Base

Loading…

Next Passes (next 24 hours)

TLE

FreshSource: Space-Track

Epoch: Sep 14, 2026, 15:02 UTC

1 A0223U 26177L   26257.62688314  .00030179  00000-0  55435-3 0  9995
2 A0223  97.2840 308.4043 0001509  86.0840 274.0584 15.49192612  7526

Track STARLINK-38238 in real time with AllMySat

Download on the App Store